Regional Weather Roundup
Issued by NWS Sioux Falls, SD

Home | Current Version | Previous Version | Text Only | Print | Product List | Glossary Off
Versions: 1 2 3 4 5 6 7 8 9 10 11 12 13 14 15 16 17 18 19 20 21 22 23 24 25 26 27 28 29 30 31 32 33 34 35 36 37 38 39 40 41 42 43 44 45 46 47 48 49 50

000
ASUS43 KFSD 200110
RWRFSD

WEATHER ROUNDUP FOR SE SOUTH DAKOTA/SW MINNESOTA/NW IOWA
NATIONAL WEATHER SERVICE SIOUX FALLS SD
800 PM CDT WED JUL 19 2017

NOTE: "FAIR" INDICATES FEW OR NO CLOUDS BELOW 12,000 FEET WITH NO
SIGNIFICANT WEATHER AND OR OBSTRUCTIONS TO VISIBILITY.


SDZ038>040-050-052>070-200200-
SOUTHEAST SOUTH DAKOTA

CITY           SKY/WX    TMP DP  RH WIND       PRES   REMARKS
BROOKINGS      CLOUDY    81  71  71 E8        29.90R
CHAMBERLAIN    MOSUNNY   87  70  56 SE6       29.85S
HURON          SUNNY     86  75  69 E7        29.85R HX  95
MADISON        FAIR      79  79 100 SE8       29.88F
MITCHELL       CLOUDY    84  76  76 SE10      29.83S
SIOUX FALLS    CLOUDY    80  75  84 E7        29.86S
WINNER         FAIR      88  64  44 E8        29.87R
$$

MNZ071-072-080-081-089-090-097-098-200200-
SOUTHWEST MINNESOTA

CITY           SKY/WX    TMP DP  RH WIND       PRES   REMARKS
FAIRMONT       CLOUDY    74  68  81 SE6       29.91F
JACKSON        CLOUDY    73  66  78 CALM      29.93S
LUVERNE        CLOUDY    77  70  78 CALM      29.89F
MARSHALL       CLOUDY    76  70  82 SE6       29.90S
MONTEVIDEO     PTCLDY    77  68  73 S3        29.90S
PIPESTONE      CLOUDY    79  70  73 E5        29.90S
REDWOOD FALLS  CLOUDY    74  67  78 SE7       29.89F
TRACY          CLOUDY    77  72  84 SE3       29.91R
WINDOM         CLOUDY    75  66  73 SE7       29.91S
WORTHINGTON    CLOUDY    76  68  76 MISG      29.92R
$$

IAZ001>003-012>014-020>022-031-032-NEZ013-014-SDZ071-200200-
NORTHWEST IOWA

CITY           SKY/WX    TMP DP  RH WIND       PRES   REMARKS
CHEROKEE       DRIZZLE   86  77  74 S8        29.94R HX  97
DENISON        CLOUDY    86  79  79 S9        29.95R HX  99
ESTHERVILLE    CLOUDY    77  69  76 SE9       29.91S
ORANGE CITY    DRIZZLE   84  77  79 S18G25    29.84F
SHELDON        CLOUDY    82  75  78 CALM      29.87S
SIOUX CITY     LGT RAIN  88  78  72 S8        29.91R HX 101
SPENCER        CLOUDY    81  73  76 S5        29.90F
STORM LAKE     CLOUDY    84  77  79 S9        29.95R
$$

ABBREVIATIONS USED IN REMARKS
   TC - TEMPERATURE IN CELSIUS
  WCI - WIND CHILL INDEX
   HX - HEAT INDEX
  VSB - VISIBILITY





USA.gov is the U.S. government's official web portal to all federal, state and local government web resources and services.